FENGYUN 1C DEB, 31376

Orbit data source: Space-Track

FENGYUN 1C DEB, 31376 is space debris in SSO originally from a launch on Mon, 10 May 1999 UTC launched from the Taiyaun Space Center, China (TSC). Fengyun 1C debris stems from the Chinese weather satellite Fengyun-1C, which was intentionally destroyed by a Chinese anti-satellite missile in 2007. This event dramatically increased the amount of space debris, with thousands of trackable fragments posing hazards to satellites and human spaceflight. The Fengyun 1C debris cloud has become a focal point in discussions about space sustainability and the need for international regulations to prevent the creation of new debris.

Loading next visibility...
Identifier
31376, 1999-025BSG
Orbit
SSO
Country
Flag of CNCN / PRC
Related business
Manufacturer
Unknown
Mission
Spacecraft
Bus & Motor
Unknown
Mass
Unknown
Launch date (UTC)
1999-05-10 (27 years ago)
Launch vehicle
Unknown
Launch site
Taiyaun Space Center, China (TSC)
Object type
Payload
Rocket body
Debris
Shape & HBR
Unknown shape, 0.1 m
Radar Cross Section
Medium (>0.1 m² and <1 m²)

Expand to show TLE details & history
Last TLE update: 2 days ago

TLE from 2 days ago
0 FENGYUN 1C DEB
1 31376U 99025BSG 26207.77548588  .00008359  00000-0  15082-2 0  9997
2 31376  98.8344 145.3285 0044922 292.5432  67.1018 14.66107220 14472
Epoch: 2026-07-26T18:36Z
TLE epoch observation values (Epoch: 2026-07-26T18:36:41.980Z)
Latitude
-0.00003°
Longitude
-78.31498°
Altitude
664.289 km
Speed
7.532 km/s
True Right ascension
09h 41m 18s
True Declination
0° 00' 00"
Sunlit
Object was in daylight at epoch
Visualization orbit readout
Latitude
Unknown
Longitude
Unknown
Altitude
Unknown
Speed
Unknown
Apparent Right ascension
Unknown
Apparent Declination
Unknown
Sunlit
N/A
Visualization observer readout
Local Sidereal Time
07:42:36
Azimuth
Unknown
Elevation
Unknown
Doppler factor
Unknown
Orbital elements
Apogee altitude
702.291 km
Perigee altitude
638.962 km
Semi-major axis
7,048.763 km
Eccentricity
0.00449
Inclination
98.8344°
RAAN
145.3285°
Arg. of periapsis
292.5432°
True anomaly
67.57704°
Mean anomaly
67.1018°
Eccentric anomaly
67.33931°
Mean motion
3.66753 °/min
Orbital period
98.16 mins
BSTAR
0.0015082
Loading maneuver chart data...
Computing Atmospheric mass density...
Loading historical data...
Loading historical data...
Loading historical data...
Loading historical data...
Loading historical data...
Loading historical data...
Loading historical data...

Documentation

Showing up to 5 results
|